DNO069 LGAV-LGKF

Flight info

Callsign DNO069
Flight time 0h 55m
Altitude 6000
Route KOR N604 ARA
Aircraft C208/L-SDFGR/C

Departure

Time 2026-04-22 18:45
Airport Athens Eleftherios Venizelos International Airport (LGAV)

Arrival

Time 2026-04-22 19:40
Airport Kefallinia Airport (LGKF)
Time Latitude Longitude Altitude Speed Heading
2026-04-22 18:15 37.95074 23.96228 300 ft 0 kts 36°
2026-04-22 18:33 37.95075 23.96229 299 ft 0 kts 36°
2026-04-22 18:33 37.95081 23.96236 299 ft 3 kts 63°
2026-04-22 18:34 37.95073 23.96258 302 ft 3 kts 137°
2026-04-22 18:34 37.95056 23.96272 303 ft 4 kts 162°
2026-04-22 18:34 37.95019 23.96267 300 ft 6 kts 180°
2026-04-22 18:34 37.94993 23.96287 300 ft 2 kts 129°
2026-04-22 18:35 37.94976 23.96315 300 ft 8 kts 126°
2026-04-22 18:35 37.94929 23.96312 299 ft 9 kts 220°
2026-04-22 18:35 37.94869 23.96248 300 ft 14 kts 217°
2026-04-22 18:35 37.94781 23.96161 299 ft 19 kts 216°
2026-04-22 18:36 37.94689 23.96076 301 ft 12 kts 217°
2026-04-22 18:36 37.94640 23.96043 299 ft 5 kts 191°
2026-04-22 18:36 37.94631 23.96041 299 ft 0 kts 193°
2026-04-22 18:36 37.94604 23.96034 301 ft 8 kts 191°
2026-04-22 18:37 37.94531 23.95975 299 ft 17 kts 217°
2026-04-22 18:37 37.94421 23.95870 299 ft 19 kts 217°
2026-04-22 18:37 37.94360 23.95814 298 ft 14 kts 216°
2026-04-22 18:37 37.94273 23.95730 299 ft 10 kts 219°
2026-04-22 18:38 37.94223 23.95683 299 ft 9 kts 215°
2026-04-22 18:38 37.94150 23.95612 298 ft 16 kts 226°
2026-04-22 18:38 37.94157 23.95514 299 ft 12 kts 309°
2026-04-22 18:39 37.94284 23.95308 301 ft 23 kts 303°
2026-04-22 18:39 37.94396 23.95108 302 ft 16 kts 305°
2026-04-22 18:39 37.94460 23.95003 300 ft 17 kts 307°
2026-04-22 18:39 37.94543 23.94862 301 ft 23 kts 306°
2026-04-22 18:40 37.94641 23.94697 302 ft 19 kts 306°
2026-04-22 18:40 37.94670 23.94562 301 ft 19 kts 228°
2026-04-22 18:40 37.94542 23.94442 300 ft 27 kts 217°
2026-04-22 18:40 37.94408 23.94316 301 ft 19 kts 217°
2026-04-22 18:41 37.94320 23.94231 300 ft 14 kts 219°
2026-04-22 18:41 37.94222 23.94140 300 ft 22 kts 216°
2026-04-22 18:41 37.94093 23.94016 300 ft 20 kts 218°
2026-04-22 18:41 37.94023 23.93947 299 ft 8 kts 226°
2026-04-22 18:42 37.94000 23.93889 300 ft 10 kts 245°
2026-04-22 18:42 37.93956 23.93770 296 ft 19 kts 247°
2026-04-22 18:42 37.93912 23.93660 292 ft 10 kts 243°
2026-04-22 18:42 37.93905 23.93589 291 ft 9 kts 301°
2026-04-22 18:43 37.93929 23.93579 292 ft 0 kts 38°
2026-04-22 18:43 37.93937 23.93587 292 ft 11 kts 41°
2026-04-22 18:43 37.94114 23.93758 297 ft 51 kts 37°
2026-04-22 18:44 37.94482 23.94093 336 ft 74 kts 37°
2026-04-22 18:44 37.94920 23.94497 461 ft 81 kts 38°
2026-04-22 18:44 37.95365 23.94942 656 ft 82 kts 40°
2026-04-22 18:44 37.95806 23.95419 868 ft 82 kts 41°
2026-04-22 18:45 37.96239 23.95881 1055 ft 83 kts 41°
2026-04-22 18:45 37.96676 23.96382 1200 ft 87 kts 47°
2026-04-22 18:45 37.97101 23.96910 1367 ft 84 kts 31°
2026-04-22 18:45 37.97653 23.96977 1587 ft 85 kts 342°
2026-04-22 18:46 37.98065 23.96408 1745 ft 95 kts 301°
2026-04-22 18:46 37.98344 23.95615 1881 ft 101 kts 295°
2026-04-22 18:46 37.98571 23.94771 2063 ft 102 kts 285°
2026-04-22 18:46 37.98560 23.93857 2225 ft 107 kts 259°
2026-04-22 18:47 37.98337 23.92950 2408 ft 109 kts 251°
2026-04-22 18:47 37.98103 23.92034 2594 ft 109 kts 262°
2026-04-22 18:47 37.98068 23.91094 2765 ft 105 kts 274°
2026-04-22 18:47 37.98088 23.90174 2935 ft 104 kts 272°
2026-04-22 18:48 37.98085 23.89232 3038 ft 113 kts 270°
2026-04-22 18:48 37.98080 23.88253 3303 ft 107 kts 272°
2026-04-22 18:48 37.98105 23.87348 3574 ft 100 kts 268°
2026-04-22 18:48 37.98063 23.86493 3817 ft 94 kts 261°
2026-04-22 18:49 37.97977 23.85666 3979 ft 98 kts 264°
2026-04-22 18:49 37.97876 23.84816 4210 ft 94 kts 253°
2026-04-22 18:49 37.97708 23.84035 4442 ft 93 kts 257°
2026-04-22 18:49 37.97586 23.83231 4618 ft 93 kts 255°
2026-04-22 18:50 37.97439 23.82408 4759 ft 97 kts 256°
2026-04-22 18:50 37.97361 23.81556 4903 ft 100 kts 265°
2026-04-22 18:50 37.97361 23.80662 5087 ft 102 kts 270°
2026-04-22 18:50 37.97402 23.79762 5297 ft 102 kts 268°
2026-04-22 18:51 37.97376 23.78883 5561 ft 97 kts 267°
2026-04-22 18:51 37.97407 23.78040 5799 ft 95 kts 272°
2026-04-22 18:51 37.97493 23.77188 5964 ft 100 kts 277°
2026-04-22 18:51 37.97626 23.76258 6016 ft 114 kts 279°
2026-04-22 18:52 37.97763 23.75215 6077 ft 124 kts 277°
2026-04-22 18:52 37.97882 23.74102 6096 ft 133 kts 277°
2026-04-22 18:52 37.97978 23.72909 6133 ft 138 kts 273°
2026-04-22 18:52 37.98003 23.71680 6239 ft 137 kts 269°
2026-04-22 18:53 37.97961 23.70613 6729 ft 108 kts 265°
2026-04-22 18:53 37.97851 23.69626 6726 ft 123 kts 252°
2026-04-22 18:53 37.97549 23.68981 6682 ft 134 kts 239°
2026-04-22 18:53 37.97140 23.67436 6574 ft 146 kts 264°
2026-04-22 18:54 37.97075 23.66572 6519 ft 151 kts 265°
2026-04-22 18:54 37.96968 23.64789 6455 ft 154 kts 266°
2026-04-22 18:54 37.96894 23.63436 6492 ft 154 kts 266°
2026-04-22 18:54 37.96823 23.62086 6488 ft 154 kts 266°
2026-04-22 18:55 37.96751 23.60730 6439 ft 156 kts 266°
2026-04-22 18:55 37.96702 23.59796 6357 ft 159 kts 266°
2026-04-22 18:55 37.96628 23.58379 6240 ft 163 kts 266°
2026-04-22 18:55 37.96550 23.56934 6116 ft 166 kts 266°
2026-04-22 18:56 37.96476 23.55469 6012 ft 167 kts 266°
2026-04-22 18:56 37.96399 23.54023 6009 ft 163 kts 265°
2026-04-22 18:56 37.96378 23.52605 5999 ft 160 kts 275°
2026-04-22 18:56 37.96553 23.51237 5993 ft 158 kts 278°
2026-04-22 18:57 37.96715 23.49846 5992 ft 157 kts 276°
2026-04-22 18:57 37.96857 23.48482 5991 ft 156 kts 276°
2026-04-22 18:57 37.96994 23.47140 5967 ft 155 kts 276°
2026-04-22 18:57 37.97134 23.45762 5968 ft 156 kts 276°
2026-04-22 18:58 37.97270 23.44416 5968 ft 156 kts 276°
2026-04-22 18:58 37.97407 23.43053 5991 ft 156 kts 276°
2026-04-22 18:58 37.97544 23.41695 5984 ft 155 kts 276°
2026-04-22 18:58 37.97682 23.40342 5987 ft 154 kts 276°
2026-04-22 18:59 37.97817 23.38991 5986 ft 155 kts 276°
2026-04-22 18:59 37.97954 23.37639 5986 ft 155 kts 276°
2026-04-22 18:59 37.98090 23.36283 5987 ft 155 kts 276°
2026-04-22 18:59 37.98226 23.34930 5987 ft 155 kts 276°
2026-04-22 19:00 37.98317 23.34019 5986 ft 154 kts 276°
2026-04-22 19:00 37.98496 23.32234 5986 ft 154 kts 276°
2026-04-22 19:00 37.98630 23.30889 5989 ft 154 kts 276°
2026-04-22 19:00 37.98765 23.29550 5989 ft 152 kts 276°
2026-04-22 19:01 37.98896 23.28225 5986 ft 151 kts 276°
2026-04-22 19:01 37.99027 23.26917 5987 ft 150 kts 276°
2026-04-22 19:01 37.99158 23.25604 5988 ft 150 kts 275°
2026-04-22 19:01 37.99289 23.24285 5989 ft 151 kts 276°
2026-04-22 19:02 37.99420 23.22961 5993 ft 152 kts 276°
2026-04-22 19:02 37.99548 23.21634 5989 ft 149 kts 275°
2026-04-22 19:02 37.99678 23.20342 5992 ft 147 kts 276°
2026-04-22 19:02 37.99811 23.19039 5997 ft 151 kts 276°
2026-04-22 19:03 37.99942 23.17708 6005 ft 154 kts 276°
2026-04-22 19:03 38.00075 23.16356 6007 ft 155 kts 276°
2026-04-22 19:03 38.00207 23.15015 6004 ft 156 kts 276°
2026-04-22 19:03 38.00341 23.13657 6003 ft 155 kts 276°
2026-04-22 19:04 38.00473 23.12312 6003 ft 152 kts 276°
2026-04-22 19:04 38.00605 23.10972 5998 ft 151 kts 276°
2026-04-22 19:04 38.00734 23.09640 6002 ft 154 kts 276°
2026-04-22 19:04 38.00866 23.08306 6002 ft 154 kts 276°
2026-04-22 19:05 38.00997 23.06963 6003 ft 153 kts 276°
2026-04-22 19:05 38.01129 23.05618 5999 ft 154 kts 276°
2026-04-22 19:05 38.01260 23.04272 5988 ft 153 kts 276°
2026-04-22 19:05 38.01389 23.02954 5989 ft 147 kts 276°
2026-04-22 19:06 38.01515 23.01664 6003 ft 149 kts 276°
2026-04-22 19:06 38.01643 23.00358 6005 ft 150 kts 276°
2026-04-22 19:06 38.01771 22.99042 6006 ft 151 kts 276°
2026-04-22 19:07 38.02029 22.96385 6008 ft 152 kts 276°
2026-04-22 19:07 38.02159 22.95046 6006 ft 153 kts 276°
2026-04-22 19:07 38.02288 22.93711 6005 ft 152 kts 276°
2026-04-22 19:07 38.02416 22.92379 6007 ft 152 kts 276°
2026-04-22 19:08 38.02545 22.91049 6003 ft 152 kts 276°
2026-04-22 19:08 38.02673 22.89722 6001 ft 152 kts 276°
2026-04-22 19:08 38.02801 22.88392 5997 ft 152 kts 276°
2026-04-22 19:08 38.02928 22.87066 6000 ft 151 kts 276°
2026-04-22 19:09 38.03055 22.85743 6002 ft 151 kts 276°
2026-04-22 19:09 38.03184 22.84417 5998 ft 152 kts 276°
2026-04-22 19:09 38.03310 22.83087 5997 ft 152 kts 276°
2026-04-22 19:09 38.03438 22.81762 5997 ft 151 kts 276°
2026-04-22 19:10 38.03564 22.80438 5994 ft 151 kts 276°
2026-04-22 19:10 38.03690 22.79117 5996 ft 151 kts 276°
2026-04-22 19:10 38.03817 22.77796 5994 ft 151 kts 276°
2026-04-22 19:10 38.03943 22.76472 5993 ft 152 kts 276°
2026-04-22 19:11 38.04069 22.75144 5991 ft 152 kts 276°
2026-04-22 19:11 38.04196 22.73816 5994 ft 152 kts 276°
2026-04-22 19:11 38.04322 22.72482 5994 ft 152 kts 276°
2026-04-22 19:11 38.04449 22.71149 5991 ft 152 kts 276°
2026-04-22 19:12 38.04575 22.69815 5994 ft 152 kts 276°
2026-04-22 19:12 38.04701 22.68483 5991 ft 152 kts 276°
2026-04-22 19:12 38.04827 22.67148 5995 ft 153 kts 276°
2026-04-22 19:12 38.04952 22.65813 5993 ft 152 kts 276°
2026-04-22 19:13 38.05079 22.64483 5990 ft 151 kts 276°
2026-04-22 19:13 38.05204 22.63158 5987 ft 151 kts 276°
2026-04-22 19:13 38.05327 22.61835 5993 ft 152 kts 275°
2026-04-22 19:13 38.05452 22.60499 5990 ft 153 kts 276°
2026-04-22 19:14 38.05579 22.59157 5986 ft 153 kts 276°
2026-04-22 19:14 38.05703 22.57817 5989 ft 152 kts 276°
2026-04-22 19:14 38.05830 22.56487 5991 ft 152 kts 276°
2026-04-22 19:14 38.05951 22.55175 5993 ft 152 kts 276°
2026-04-22 19:15 38.06035 22.54270 5988 ft 153 kts 276°
2026-04-22 19:15 38.06204 22.52470 5988 ft 153 kts 276°
2026-04-22 19:15 38.06327 22.51150 5983 ft 152 kts 276°
2026-04-22 19:15 38.06452 22.49807 5986 ft 151 kts 276°
2026-04-22 19:16 38.06575 22.48474 5989 ft 153 kts 276°
2026-04-22 19:16 38.06699 22.47127 5993 ft 155 kts 276°
2026-04-22 19:16 38.06826 22.45768 5993 ft 155 kts 276°
2026-04-22 19:16 38.06950 22.44425 5987 ft 150 kts 276°
2026-04-22 19:17 38.07073 22.43107 5997 ft 152 kts 276°
2026-04-22 19:17 38.07195 22.41781 5998 ft 154 kts 276°
2026-04-22 19:17 38.07320 22.40427 5999 ft 155 kts 276°
2026-04-22 19:17 38.07444 22.39071 6001 ft 155 kts 276°
2026-04-22 19:18 38.07569 22.37694 5996 ft 156 kts 276°
2026-04-22 19:18 38.07693 22.36345 6001 ft 156 kts 276°
2026-04-22 19:18 38.07822 22.34964 5998 ft 158 kts 276°
2026-04-22 19:18 38.07949 22.33579 5996 ft 157 kts 276°
2026-04-22 19:19 38.08074 22.32207 6000 ft 156 kts 276°
2026-04-22 19:19 38.08195 22.30851 5987 ft 152 kts 276°
2026-04-22 19:19 38.08318 22.29528 5987 ft 150 kts 276°
2026-04-22 19:19 38.08440 22.28202 5990 ft 152 kts 276°
2026-04-22 19:20 38.08561 22.26859 5984 ft 153 kts 276°
2026-04-22 19:20 38.08681 22.25536 5990 ft 150 kts 277°
2026-04-22 19:20 38.08803 22.24198 5994 ft 155 kts 276°
2026-04-22 19:20 38.08926 22.22839 5999 ft 155 kts 276°
2026-04-22 19:21 38.09050 22.21477 5986 ft 155 kts 276°
2026-04-22 19:21 38.09171 22.20140 5994 ft 153 kts 276°
2026-04-22 19:21 38.09292 22.18775 5994 ft 158 kts 277°
2026-04-22 19:21 38.09417 22.17396 6000 ft 158 kts 277°
2026-04-22 19:22 38.09544 22.15989 5993 ft 162 kts 276°
2026-04-22 19:22 38.09671 22.14598 5986 ft 155 kts 276°
2026-04-22 19:22 38.09791 22.13253 6001 ft 154 kts 276°
2026-04-22 19:22 38.09911 22.11893 6008 ft 156 kts 276°
2026-04-22 19:23 38.10034 22.10510 6005 ft 159 kts 276°
2026-04-22 19:23 38.10158 22.09120 6008 ft 158 kts 277°
2026-04-22 19:23 38.10285 22.07726 5996 ft 160 kts 277°
2026-04-22 19:23 38.10407 22.06358 6005 ft 150 kts 276°
2026-04-22 19:24 38.10526 22.05027 6006 ft 154 kts 276°
2026-04-22 19:24 38.10648 22.03658 6008 ft 158 kts 276°
2026-04-22 19:24 38.10769 22.02270 6007 ft 158 kts 276°
2026-04-22 19:24 38.10894 22.00882 6008 ft 159 kts 276°
2026-04-22 19:25 38.11017 21.99502 5998 ft 156 kts 276°
2026-04-22 19:25 38.11137 21.98132 5994 ft 156 kts 276°
2026-04-22 19:25 38.11259 21.96760 5994 ft 157 kts 276°
2026-04-22 19:25 38.11381 21.95390 6003 ft 156 kts 276°
2026-04-22 19:26 38.11502 21.94018 6001 ft 157 kts 276°
2026-04-22 19:26 38.11622 21.92633 5999 ft 158 kts 276°
2026-04-22 19:26 38.11742 21.91249 5995 ft 157 kts 277°
2026-04-22 19:26 38.11865 21.89870 5999 ft 158 kts 276°
2026-04-22 19:27 38.11986 21.88481 5988 ft 158 kts 276°
2026-04-22 19:27 38.12069 21.87095 5998 ft 158 kts 270°
2026-04-22 19:27 38.12032 21.85700 6000 ft 159 kts 269°
2026-04-22 19:27 38.12017 21.84293 6002 ft 160 kts 270°
2026-04-22 19:28 38.12014 21.82877 6003 ft 161 kts 271°
2026-04-22 19:28 38.12015 21.81455 6003 ft 161 kts 271°
2026-04-22 19:28 38.12015 21.80042 6006 ft 160 kts 270°
2026-04-22 19:28 38.12015 21.79817 6002 ft 160 kts 270°
2026-04-22 19:29 38.12015 21.79409 6006 ft 160 kts 270°
2026-04-22 19:29 38.12007 21.67427 6000 ft 172 kts 270°
2026-04-22 19:29 38.11956 21.43497 6008 ft 171 kts 270°
2026-04-22 19:29 38.11853 21.19282 6004 ft 172 kts 270°
2026-04-22 19:30 38.11755 21.02965 5995 ft 171 kts 270°
2026-04-22 19:30 38.11668 20.90702 5991 ft 170 kts 270°
2026-04-22 19:30 38.11663 20.90275 5988 ft 170 kts 270°
2026-04-22 19:30 38.11655 20.89524 5990 ft 170 kts 270°
2026-04-22 19:31 38.11649 20.88775 5985 ft 169 kts 270°
2026-04-22 19:31 38.11638 20.87580 5985 ft 164 kts 270°
2026-04-22 19:31 38.11625 20.86167 5987 ft 157 kts 270°
2026-04-22 19:31 38.11552 20.84793 6001 ft 155 kts 257°
2026-04-22 19:32 38.11210 20.83510 6035 ft 150 kts 252°
2026-04-22 19:32 38.10818 20.82326 5848 ft 141 kts 249°
2026-04-22 19:32 38.10420 20.81211 5625 ft 139 kts 248°
2026-04-22 19:32 38.09990 20.80128 5367 ft 133 kts 247°
2026-04-22 19:33 38.09545 20.79080 4977 ft 139 kts 245°
2026-04-22 19:33 38.09025 20.78031 4617 ft 143 kts 236°
2026-04-22 19:33 38.08374 20.77066 4371 ft 141 kts 238°
2026-04-22 19:33 38.07856 20.76030 4166 ft 138 kts 244°
2026-04-22 19:34 38.07454 20.74950 3892 ft 136 kts 253°
2026-04-22 19:34 38.07219 20.73804 3599 ft 135 kts 263°
2026-04-22 19:34 38.07110 20.72615 3355 ft 135 kts 271°
2026-04-22 19:34 38.07201 20.71459 3205 ft 130 kts 283°
2026-04-22 19:35 38.07346 20.70306 2945 ft 133 kts 278°
2026-04-22 19:35 38.07408 20.69159 2909 ft 129 kts 275°
2026-04-22 19:35 38.07431 20.68399 2920 ft 125 kts 275°
2026-04-22 19:35 38.07450 20.66965 2865 ft 122 kts 272°
2026-04-22 19:36 38.07408 20.65886 2828 ft 123 kts 270°
2026-04-22 19:36 38.07350 20.64798 2817 ft 123 kts 270°
2026-04-22 19:36 38.07316 20.63705 2699 ft 126 kts 270°
2026-04-22 19:36 38.07329 20.62596 2548 ft 127 kts 276°
2026-04-22 19:37 38.07378 20.61456 2399 ft 132 kts 275°
2026-04-22 19:37 38.07423 20.60286 2287 ft 134 kts 275°
2026-04-22 19:37 38.07481 20.59113 2130 ft 132 kts 276°
2026-04-22 19:37 38.07554 20.57980 1984 ft 130 kts 281°
2026-04-22 19:38 38.07732 20.56825 1737 ft 133 kts 284°
2026-04-22 19:38 38.07961 20.55691 1535 ft 132 kts 286°
2026-04-22 19:38 38.08222 20.54588 1251 ft 129 kts 289°
2026-04-22 19:38 38.08518 20.53590 1073 ft 116 kts 298°
2026-04-22 19:39 38.08987 20.52779 848 ft 115 kts 315°
2026-04-22 19:39 38.09557 20.52130 804 ft 94 kts 320°
2026-04-22 19:39 38.10031 20.51717 694 ft 78 kts 323°
2026-04-22 19:39 38.10475 20.51343 511 ft 75 kts 320°
2026-04-22 19:40 38.10905 20.50971 255 ft 75 kts 322°
2026-04-22 19:40 38.11321 20.50621 61 ft 65 kts 322°
2026-04-22 19:40 38.11629 20.50362 59 ft 42 kts 326°
2026-04-22 19:40 38.11800 20.50363 64 ft 21 kts 37°
2026-04-22 19:41 38.11855 20.50445 63 ft 0 kts 54°